Regional Weather Roundup
Issued by NWS

Home | Current Version | Previous Version | Graphics & Text | Print | Product List | Glossary On
Versions: 1 2 3 4 5 6 7 8 9 10 11 12 13 14 15 16 17 18 19 20 21 22 23 24 25 26 27 28 29 30 31 32 33 34 35 36 37 38 39 40 41 42 43 44 45 46 47 48 49 50
000
ASUS43 KDTX 040110
RWRMI
MICHIGAN HOURLY REGIONAL WEATHER ROUNDUP
NATIONAL WEATHER SERVICE DETROIT/PONTIAC MI
900 PM EDT THU SEP 03 2015

NOTE: "FAIR" INDICATES FEW OR NO CLOUDS BELOW 12,000 FEET WITH NO
SIGNIFICANT WEATHER AND/OR OBSTRUCTION TO VISIBILITY.

MIZ047>049-052>055-059>063-066>070-074>076-081>083-040200-
SOUTHEAST LOWER MICHIGAN

CITY           SKY/WX    TMP DP  RH WIND       PRES   REMARKS
ADRIAN         CLOUDY    72  69  90 E7        29.91S
ALMA           CLOUDY    68  67  98 SE3       29.90S FOG
ANN ARBOR      CLOUDY    68  67  96 SE5       29.90F
BAD AXE        CLOUDY    67  66  96 E3        29.94F
CARO           CLOUDY    65  64  97 E5        29.92S
DETROIT CITY   LGT RAIN  69  66  90 SE6       29.93S
DETROIT        LGT RAIN  68  64  87 E8        29.92R
FLINT          LGT RAIN  72  68  87 E7        29.92R
GROSSE ILE     RAIN      68  64  88 E5        29.90F
HILLSDALE      CLOUDY    76  72  86 E10       29.90F
HOWELL         CLOUDY    66  65  97 NE6       29.92R

CITY           SKY/WX    TMP DP  RH WIND       PRES   REMARKS
JACKSON        CLOUDY    72  70  93 S5        29.89F
LAMBERTVILLE   RAIN      74  70  89 E5        29.92R
LANSING        CLOUDY    70  68  93 CALM      29.90F
LAPEER         DRIZZLE   67  66  99 SE3       29.93S
MASON          CLOUDY    69  66  90 CALM      29.90S FOG
MONROE         RAIN      70  67  89 S3        29.92R
MT. CLEMENS    LGT RAIN  70  68  94 E9        29.94R FOG
PONTIAC        TSTM      68  67  96 E6        29.92R
PORT HOPE        N/A     69  68  96 E13       29.92F
PORT HURON     LGT RAIN  66  66 100 E5        29.95F
TRI CITIES     LGT RAIN  69  65  86 E8        29.92R
MIDLAND        CLOUDY    67  66  96 E5        29.91R
TROY           RAIN      71  69  94 NE10      29.95R
SAGINAW HB     CLOUDY    68  64  88 E6        29.91R
$$
MIZ043>046-050>051-056>058-064>065-071>073-077>080-040200-
SOUTHWEST LOWER MICHIGAN

CITY           SKY/WX    TMP DP  RH WIND       PRES   REMARKS
BATTLE CREEK   MOCLDY    79  70  74 NW6       29.90S
BENTON HARBOR  CLEAR     72  67  84 VRB5      29.90S
BIG RAPIDS     CLOUDY    70  67  89 CALM      29.90S
COLDWATER      MOCLDY    76  71  84 CALM      29.89F
FREMONT        CLOUDY    70  69  96 W5        29.89S
HOLLAND        MOCLDY    71  67  87 NW8       29.91S
GRAND RAPIDS   MOCLDY    75  70  84 W8        29.89S
IONIA          CLOUDY    73  71  96 CALM      29.88S
KALAMAZOO      MOCLDY    79  69  71 NW6       29.89F
LUDINGTON      DRIZZLE   71  69  93 CALM      29.91R
MARSHALL       CLOUDY    73  71  91 CALM      29.89F
MOUNT PLEASANT CLOUDY    69  67  93 E6        29.90R
MUSKEGON       CLOUDY    71  65  81 NW10      29.90S
SOUTH HAVEN    MOCLDY    72  66  81 N3        29.91S
$$
MIZ016>042-040200-
NORTHERN LOWER MICHIGAN

CITY           SKY/WX    TMP DP  RH WIND       PRES   REMARKS
ALPENA         LGT RAIN  68  66  93 CALM      29.96R
BEAVER ISLAND  PTCLDY    67  65  93 E8        29.97R
BELLAIRE       CLOUDY    69  65  86 N5        29.93R
CADILLAC       DRIZZLE   67  67  97 N5        29.92R
CHARLEVOIX     PTCLDY    70  67  90 NE6       29.98R FOG
FRANKFORT      CLOUDY    70  67  89 N5        29.91R
GAYLORD        CLOUDY    67  66  97 E6        29.96R
GRAYLING       DRIZZLE   66  65  98 E8        29.95R
HARBOR SPRINGS MOCLDY    69  66  90 NE7       29.95R
HOUGHTON LAKE  LGT RAIN  67  66  97 E9        29.94R FOG
MANISTEE       CLOUDY    66  64  94 CALM      29.92R
OSCODA         CLOUDY    68  67  96 E5        29.94R
PELLSTON       MOCLDY    69  66  90 NE5       29.97R
ROGERS CITY    MOCLDY    67  65  92 CALM      29.97R
TRAVERSE CITY  CLOUDY    71  66  84 NE5       29.91R
$$
MIZ007>008-015-040200-
EASTERN UPPER MICHIGAN

CITY           SKY/WX    TMP DP  RH WIND       PRES   REMARKS
KINROSS        MOCLDY    72  64  78 CALM      29.99R
MACKINAC ISLAN MOCLDY    65  64  97 NE8       29.98R FOG
NEWBERRY       PTCLDY    70  63  79 NE5       29.98S
S. S. MARIE    PTCLDY    70  63  78 S7        29.98R
MUNISING         N/A     66  62  87 NW3       29.98S
$$
MIZ004>006-011>014-085-040200-
CENTRAL UPPER MICHIGAN

CITY           SKY/WX    TMP DP  RH WIND       PRES   REMARKS
MANISTIQUE     PTCLDY    69  63  81 CALM      29.96S
ESCANABA       CLEAR     72  63  73 N5        29.95R
MENOMINEE      CLEAR     68  61  77 CALM      29.94R
SAWYER-GWINN   CLEAR     63  55  77 N5        30.00S
$$
MIZ001>003-009>011-084-040200-
WESTERN UPPER MICHIGAN

CITY           SKY/WX    TMP DP  RH WIND       PRES   REMARKS
IRON MOUNTAIN  PTCLDY    72  64  76 E8        29.97R
HOUGHTON       CLEAR     64  55  72 E3        29.99S
COPPER HARBOR    N/A     64  60  87 CALM      29.99R
IRONWOOD       CLEAR     66  63  88 E6        29.95R
$$

ABBREVIATIONS USED IN REMARKS
   TC - TEMPERATURE IN CELSIUS
  WCI - WIND CHILL INDEX
   HX - HEAT INDEX
  VSB - VISIBILITY



USA.gov is the U.S. government's official web portal to all federal, state and local government web resources and services.